Flag for Germany Weather past 2 weeks in Leutkirch im Allgäu, Baden-Württemberg, Germany

Now
59 °F

Light rain. Overcast.


Feels Like: 59 °F
Forecast: 37 / 53 °F
Wind: 1 mph from North

Location: Kempten

Current Time: Apr 27, 2015 at 9:19:37 PM

Latest Report: Apr 27, 2015 at 8:00 PM


Visibility: 6 mi

Pressure: 29.44 "Hg

Humidity: 82%

Dew point: 54 °F

Location of Leutkirch im AllgäuLocation

Historic Weather in Leutkirch im Allgäu — Graph

°F

Leutkirch im Allgäu temperature yesterday

Maximum temperature yesterday: 65 °F (at 3:00 PM)
Minimum temperature yesterday: 48 °F (at 7:00 AM)
Average temperature yesterday: 57 °F

Past Weeks' High & Low Weather Summary

 TemperatureHumidityPressure
High72 °F (Apr 15, 3:00 PM)95% (Apr 17, 9:00 PM)30.49 "Hg (Apr 17, 9:00 PM)
Low29 °F (Apr 19, 7:00 AM)17% (Apr 16, 4:00 PM)29.41 "Hg (Apr 27, 6:00 PM)
Average51 °F62%30.10 "Hg
* Reported Apr 12 8:00 PM — Apr 27 8:00 PM, Leutkirch im Allgäu, Weather by CustomWeather, © 2015

Note: Actual official high and low records may vary slightly from our data, if they occured in-between our weather recording intervals... More about our weather records

Advertising

Leutkirch im Allgäu weather history for previous 24 hours

 ConditionsComfort  
Time TempWeatherWind HumidityBarometerVisibility
8:00 PM
Mon, Apr 27
59 °FLight rain. Overcast.1 mph82%29.44 "Hg6 mi
7:00 PM61 °FOvercast.1 mph75%29.44 "Hg16 mi
6:00 PM64 °FOvercast.2 mph60%29.41 "Hg17 mi
4:00 PM66 °FOvercast.2 mph54%29.44 "Hg22 mi
3:00 PM66 °FOvercast.3 mph50%29.44 "Hg19 mi
2:00 PM65 °FSunny.3 mph52%29.47 "Hg28 mi
1:00 PM66 °FScattered clouds.3 mph49%29.47 "Hg22 mi
12:00 PM64 °FScattered clouds.3 mph53%29.50 "Hg19 mi
10:00 AM61 °FOvercast.1 mph53%29.55 "Hg28 mi
9:00 AM53 °FPassing clouds.2 mph65%29.60 "Hg43 mi
8:00 AM47 °FPartly sunny.1 mph79%29.63 "Hg19 mi
7:00 AM41 °FPartly sunny.1 mph94%29.66 "Hg19 mi
6:00 AM41 °FPassing clouds.2 mph94%29.65 "Hg19 mi
4:00 AM45 °FPassing clouds.3 mph90%29.66 "Hg25 mi
3:00 AM46 °FClear.2 mph91%29.66 "Hg28 mi
2:00 AM47 °FClear.2 mph90%29.68 "Hg31 mi
1:00 AM50 °FClear.2 mph83%29.67 "Hg28 mi
12:00 AM48 °FClear.2 mph90%29.69 "Hg25 mi
10:00 PM
Sun, Apr 26
55 °FPassing clouds.2 mph82%29.67 "Hg34 mi
9:00 PM59 °FOvercast.1 mph67%29.65 "Hg37 mi
Weather by CustomWeather, © 2015

See weather overviewHow to use our weather pages